DW4075 Weather Reports


Display with metric or nautical units.
time (UTC)temp
F
wind
direction
speed
MPH
gust
MPH
rain 1hr
in
rain 24hr
in
rain mn
in
humidity
%
barometer
mb
20260505075004 54 254 1.0 4.0 0.00 0.00 0.00 36 1009.9
20260505074503 54 254 0.0 4.0 0.00 0.00 0.00 35 1009.8
20260505074221 54 254 0.0 4.0 0.00 0.00 0.00 36 1009.9
20260505073451 55 254 0.0 4.0 0.00 0.00 0.00 35 1010.2
20260505072949 55 254 0.0 1.0 0.00 0.00 0.00 35 1010.3
20260505072443 56 254 0.0 0.0 0.00 0.00 0.00 34 1010.4
20260505071931 56 254 1.0 5.0 0.00 0.00 0.00 33 1010.4
20260505071425 57 254 1.0 5.0 0.00 0.00 0.00 33 1010.6
20260505070919 57 254 1.0 4.0 0.00 0.00 0.00 32 1010.8
20260505070415 57 254 3.0 8.0 0.00 0.00 0.00 32 1011.0
20260505065909 58 254 4.0 9.0 0.00 0.00 0.00 32 1011.1
20260505065408 58 258 4.0 12.0 0.00 0.00 0.00 31 1011.2
20260505064903 58 302 6.0 12.0 0.00 0.00 0.00 31 1011.4
20260505064403 58 282 7.0 13.0 0.00 0.00 0.00 31 1011.2
20260505063903 58 293 8.0 15.0 0.00 0.00 0.00 30 1011.4
20260505063403 59 291 9.0 18.0 0.00 0.00 0.00 30 1011.4
20260505063126 59 272 9.0 18.0 0.00 0.00 0.00 30 1011.4
20260505062403 59 280 8.0 16.0 0.00 0.00 0.00 30 1011.2
20260505062128 59 292 8.0 16.0 0.00 0.00 0.00 30 1011.5
20260505061403 59 307 8.0 15.0 0.00 0.00 0.00 30 1011.5
20260505060903 59 304 7.0 15.0 0.00 0.00 0.00 30 1011.5
20260505060351 59 315 7.0 13.0 0.00 0.00 0.00 31 1011.6
20260505060202 60 285 8.0 13.0 0.00 0.00 0.00 31 1011.6
20260505060158 59 281 7.0 11.0 0.00 0.00 0.00 33 1011.7
20260505060153 59 284 7.0 11.0 0.00 0.00 0.00 33 1011.7
20260505055932 59 281 7.0 11.0 0.00 0.00 0.00 33 1011.5
20260505053818 59 283 6.0 11.0 0.00 0.00 0.00 33 1011.5
20260505053542 59 271 6.0 11.0 0.00 0.00 0.00 33 1011.4
20260505052818 59 274 6.0 11.0 0.00 0.00 0.00 34 1011.1
20260505052319 59 269 5.0 11.0 0.00 0.00 0.00 34 1011.1
20260505051818 59 252 4.0 8.0 0.00 0.00 0.00 35 1011.1
20260505051316 59 252 4.0 8.0 0.00 0.00 0.00 35 1011.1
20260505050817 59 246 3.0 7.0 0.00 0.00 0.00 35 1010.9
20260505050536 59 258 3.0 8.0 0.00 0.00 0.00 35 1011.0
20260505041303 59 281 2.0 7.0 0.00 0.00 0.00 34 1011.2
20260505041026 59 282 1.0 3.0 0.00 0.00 0.00 33 1011.0
20260505040302 59 282 0.0 5.0 0.00 0.00 0.00 34 1011.1
20260505035803 59 282 1.0 5.0 0.00 0.00 0.00 33 1011.4
20260505035304 59 285 0.0 2.0 0.00 0.00 0.00 33 1011.6
20260505035026 60 285 0.0 2.0 0.00 0.00 0.00 32 1011.7
20260505034303 60 285 0.0 2.0 0.00 0.00 0.00 32 1012.0
20260505034034 60 285 0.0 2.0 0.00 0.00 0.00 31 1012.0
20260505033306 61 285 1.0 3.0 0.00 0.00 0.00 31 1012.1
20260505032759 61 285 1.0 4.0 0.00 0.00 0.00 30 1012.1
20260505032250 61 285 1.0 4.0 0.00 0.00 0.00 30 1012.1
20260505031748 61 285 2.0 5.0 0.00 0.00 0.00 29 1012.3
20260505031232 62 285 2.0 7.0 0.00 0.00 0.00 29 1012.2
20260505030952 62 285 3.0 8.0 0.00 0.00 0.00 28 1012.2
20260505030220 62 284 4.0 9.0 0.00 0.00 0.00 28 1012.3
20260505025719 62 281 3.0 9.0 0.00 0.00 0.00 28 1012.2
20260505025204 62 284 3.0 8.0 0.00 0.00 0.00 27 1012.3
20260505024702 62 283 5.0 9.0 0.00 0.00 0.00 27 1012.3
20260505024200 63 280 6.0 11.0 0.00 0.00 0.00 26 1012.3
20260505023650 63 296 6.0 11.0 0.00 0.00 0.00 26 1012.3
20260505023148 63 283 5.0 9.0 0.00 0.00 0.00 26 1012.2
20260505022648 63 281 5.0 10.0 0.00 0.00 0.00 26 1012.3
20260505022147 63 283 5.0 10.0 0.00 0.00 0.00 26 1012.5
20260505021646 63 267 4.0 10.0 0.00 0.00 0.00 24 1012.5
20260505021145 64 281 6.0 14.0 0.00 0.00 0.00 24 1012.7
20260505020902 64 268 4.0 14.0 0.00 0.00 0.00 24 1012.6
20260505020139 64 284 2.0 9.0 0.00 0.00 0.00 24 1012.7
20260505015856 64 286 4.0 9.0 0.00 0.00 0.00 23 1012.8
20260505015401 64 296 6.0 10.0 0.00 0.00 0.00 23 1012.9
20260505014634 65 278 7.0 19.0 0.00 0.00 0.00 23 1012.8
20260505014353 65 265 7.0 19.0 0.00 0.00 0.00 22 1012.8
20260505013632 65 281 6.0 12.0 0.00 0.00 0.00 22 1012.8
20260505013132 65 293 6.0 13.0 0.00 0.00 0.00 21 1012.8
20260505012630 65 302 6.0 14.0 0.00 0.00 0.00 21 1012.8
20260505012121 66 237 6.0 14.0 0.00 0.00 0.00 21 1012.8
20260505011622 66 277 6.0 13.0 0.00 0.00 0.00 20 1013.1
20260505011350 66 279 7.0 13.0 0.00 0.00 0.00 20 1013.2
20260505010628 66 281 8.0 13.0 0.00 0.00 0.00 19 1013.1
20260505010127 67 290 8.0 13.0 0.00 0.00 0.00 19 1013.4
20260505005627 67 298 9.0 18.0 0.00 0.00 0.00 19 1013.3
20260505005125 67 292 8.0 18.0 0.00 0.00 0.00 19 1013.6
20260505004623 68 290 6.0 13.0 0.00 0.00 0.00 19 1013.7
20260505004113 68 292 7.0 18.0 0.00 0.00 0.00 19 1013.7
20260505004104 68 275 8.0 18.0 0.00 0.00 0.00 18 1013.9
20260505003118 68 287 8.0 15.0 0.00 0.00 0.00 18 1014.2
20260505002615 68 253 8.0 15.0 0.00 0.00 0.00 18 1014.2
20260505002112 69 250 7.0 14.0 0.00 0.00 0.00 18 1014.2
20260505001834 69 278 7.0 22.0 0.00 0.00 0.00 18 1014.2
20260505001329 69 241 9.0 22.0 0.00 0.00 0.00 18 1014.0
20260505000824 69 235 9.0 22.0 0.00 0.00 0.00 18 1014.3
20260505000104 69 245 9.0 18.0 0.00 0.00 0.00 17 1014.3
20260504235602 70 252 8.0 14.0 0.00 0.00 0.00 18 1014.6
20260504235103 70 266 7.0 14.0 0.00 0.00 0.00 18 1014.8
20260504234603 70 250 6.0 14.0 0.00 0.00 0.00 18 1014.6
20260504234103 70 236 6.0 13.0 0.00 0.00 0.00 17 1014.6
20260504233603 70 277 7.0 16.0 0.00 0.00 0.00 19 1014.9
20260504233103 70 277 8.0 16.0 0.00 0.00 0.00 18 1015.0
20260504232603 71 221 9.0 16.0 0.00 0.00 0.00 19 1015.0
20260504232103 71 301 9.0 19.0 0.00 0.00 0.00 18 1015.4
20260504231603 73 278 8.0 19.0 0.00 0.00 0.00 17 1016.0
20260504231102 73 306 8.0 18.0 0.00 0.00 0.00 19 1016.0
20260504230603 72 245 9.0 20.0 0.00 0.00 0.00 19 1015.9
20260504230319 71 268 11.0 23.0 0.00 0.00 0.00 19 1015.6
20260504225603 71 236 10.0 23.0 0.00 0.00 0.00 18 1015.5
20260504225102 71 205 7.0 15.0 0.00 0.00 0.00 19 1015.7
20260504224820 71 242 8.0 15.0 0.00 0.00 0.00 19 1015.6
20260504224055 71 272 10.0 16.0 0.00 0.00 0.00 19 1015.6
20260504223555 70 312 8.0 19.0 0.00 0.00 0.00 19 1015.4
20260504223056 70 313 8.0 19.0 0.00 0.00 0.00 19 1015.4
20260504222552 70 280 8.0 18.0 0.00 0.00 0.00 19 1015.6
20260504222053 69 266 9.0 18.0 0.00 0.00 0.00 19 1015.3
20260504221553 69 288 9.0 18.0 0.00 0.00 0.00 20 1015.3
20260504221053 69 281 9.0 16.0 0.00 0.00 0.00 19 1015.4
20260504220553 70 304 9.0 19.0 0.00 0.00 0.00 19 1015.6
20260504220259 70 288 7.0 18.0 0.00 0.00 0.00 18 1016.0
20260504220252 70 298 9.0 19.0 0.00 0.00 0.00 18 1015.9
20260504215052 71 246 7.0 16.0 0.00 0.00 0.00 18 1016.1
20260504214551 71 302 7.0 15.0 0.00 0.00 0.00 17 1016.3
20260504214046 71 301 8.0 18.0 0.00 0.00 0.00 18 1016.3
20260504213537 70 239 9.0 18.0 0.00 0.00 0.00 18 1016.5
20260504213036 71 317 9.0 20.0 0.00 0.00 0.00 17 1016.6
20260504213023 70 316 10.0 20.0 0.00 0.00 0.00 17 1016.3
20260504212035 71 263 9.0 19.0 0.00 0.00 0.00 17 1017.0
20260504211536 71 295 9.0 16.0 0.00 0.00 0.00 16 1016.8
20260504211031 70 275 10.0 22.0 0.00 0.00 0.00 16 1016.7
20260504210531 70 258 10.0 22.0 0.00 0.00 0.00 16 1016.8
20260504210033 70 273 9.0 20.0 0.00 0.00 0.00 15 1016.5
20260504205754 70 244 9.0 21.0 0.00 0.00 0.00 15 1016.6
20260504205033 70 267 11.0 21.0 0.00 0.00 0.00 16 1016.8
20260504204532 70 245 11.0 22.0 0.00 0.00 0.00 15 1017.1
20260504204259 71 251 11.0 22.0 0.00 0.00 0.00 15 1017.1
20260504203756 70 255 10.0 19.0 0.00 0.00 0.00 14 1017.0
20260504203028 71 311 10.0 20.0 0.00 0.00 0.00 14 1017.1
20260504202526 71 296 9.0 20.0 0.00 0.00 0.00 14 1017.2
20260504202027 71 279 8.0 18.0 0.00 0.00 0.00 15 1017.7
20260504201526 71 276 7.0 18.0 0.00 0.00 0.00 14 1017.8
20260504201026 72 246 7.0 16.0 0.00 0.00 0.00 15 1017.8
20260504200526 71 266 7.0 16.0 0.00 0.00 0.00 17 1017.7
20260504200244 72 271 7.0 13.0 0.00 0.00 0.00 17 1017.8
20260504195523 72 229 8.0 18.0 0.00 0.00 0.00 15 1017.8
20260504195017 71 275 10.0 18.0 0.00 0.00 0.00 17 1017.8
20260504194514 71 267 10.0 20.0 0.00 0.00 0.00 17 1017.6
20260504194012 71 265 8.0 20.0 0.00 0.00 0.00 17 1017.7
20260504193733 71 247 9.0 16.0 0.00 0.00 0.00 19 1017.7
20260504193012 71 236 8.0 16.0 0.00 0.00 0.00 19 1017.7
20260504192509 71 244 8.0 15.0 0.00 0.00 0.00 21 1017.8
20260504192010 70 207 8.0 18.0 0.00 0.00 0.00 21 1017.6
20260504191506 70 236 9.0 18.0 0.00 0.00 0.00 23 1017.3
20260504191006 69 263 9.0 18.0 0.00 0.00 0.00 21 1017.2
20260504190726 70 309 8.0 16.0 0.00 0.00 0.00 21 1017.8
20260504190004 71 246 7.0 16.0 0.00 0.00 0.00 20 1017.8
20260504185503 70 246 6.0 14.0 0.00 0.00 0.00 21 1017.7
20260504185002 71 223 7.0 14.0 0.00 0.00 0.00 20 1017.8
20260504184502 71 226 7.0 14.0 0.00 0.00 0.00 20 1017.9
20260504184225 70 261 7.0 19.0 0.00 0.00 0.00 22 1017.9
20260504183500 70 244 6.0 19.0 0.00 0.00 0.00 21 1017.6
20260504183000 69 285 6.0 11.0 0.00 0.00 0.00 21 1017.6
20260504182500 70 295 6.0 12.0 0.00 0.00 0.00 21 1017.6
20260504181959 70 306 7.0 12.0 0.00 0.00 0.00 22 1017.7
20260504181458 70 269 7.0 12.0 0.00 0.00 0.00 22 1017.7
20260504180956 69 271 7.0 13.0 0.00 0.00 0.00 21 1017.7
20260504180458 69 224 8.0 29.0 0.00 0.00 0.00 22 1017.7
20260504175956 69 324 7.0 29.0 0.00 0.00 0.00 21 1017.6
20260504175456 69 172 5.0 9.0 0.00 0.00 0.00 25 1017.9
20260504174948 69 238 6.0 12.0 0.00 0.00 0.00 26 1017.9
20260504174448 69 173 6.0 12.0 0.00 0.00 0.00 25 1017.9
20260504173945 69 148 6.0 11.0 0.00 0.00 0.00 29 1018.0
20260504173446 69 199 6.0 11.0 0.00 0.00 0.00 29 1018.3
20260504172946 68 184 6.0 11.0 0.00 0.00 0.00 30 1017.8
20260504172446 67 174 7.0 13.0 0.00 0.00 0.00 31 1017.6
20260504171945 67 183 6.0 13.0 0.00 0.00 0.00 32 1017.3
20260504171444 66 157 6.0 12.0 0.00 0.00 0.00 32 1017.4
20260504171201 66 155 6.0 14.0 0.00 0.00 0.00 33 1017.3
20260504170929 66 131 4.0 13.0 0.00 0.00 0.00 33 1017.3
20260504150904 56 175 5.0 9.0 0.00 0.00 0.00 59 1014.4
20260504150623 56 155 6.0 9.0 0.00 0.00 0.00 61 1014.5
20260504141328 51 240 1.0 5.0 0.00 0.00 0.00 71 1012.5
20260504141053 50 240 1.0 4.0 0.00 0.00 0.00 73 1012.1
20260504140330 49 240 0.0 0.0 0.00 0.00 0.00 76 1011.9
20260504130441 45 211 1.0 3.0 0.00 0.00 0.00 74 1009.9
20260504120137 46 211 1.0 4.0 0.00 0.00 0.00 71 1009.3
20260504110104 47 211 1.0 3.0 0.00 0.00 0.00 70 1009.7
20260504100532 48 211 0.0 0.0 0.00 0.00 0.00 65 1010.8
20260504100251 49 211 0.0 0.0 0.00 0.00 0.00 64 1010.9
20260504081936 53 194 3.0 8.0 0.00 0.00 0.00 60 1013.8
20260504081700 53 309 3.0 6.0 0.00 0.00 0.00 59 1013.3
20260504081156 53 310 4.0 10.0 0.00 0.00 0.00 59 1013.3
20260504080656 53 310 4.0 10.0 0.00 0.00 0.00 60 1013.4